Home   Weather   Flint   Past weeks
Flag for USA

Past Weather in Flint, Michigan, USA — Yesterday and Last 2 Weeks

Now
92 °F

Scattered clouds.


Feels Like: 103 °F
Forecast: 90 / 77 °F
Wind: 9 mph from Southwest

Location: Bishop International Airport

Current Time: Jul 19, 2019 at 5:07:16 pm

Latest Report: Jul 19, 2019 at 3:53 pm


Visibility: 10 mi

Pressure: 29.81 "Hg

Humidity: 58%

Dew Point: 75 °F

Location of FlintLocation

Past Weather in Flint — Graph

°F

Flint Temperature Yesterday

Maximum temperature yesterday: 87 °F (at 12:53 pm)
Minimum temperature yesterday: 66 °F (at 4:53 am)
Average temperature yesterday: 78 °F

High & Low Weather Summary for the Past Weeks

 TemperatureHumidityPressure
High93 °F (Jul 19, 2:53 pm)93% (Jul 17, 12:40 am)30.16 "Hg (Jul 17, 12:40 am)
Low54 °F (Jul 8, 5:53 am)34% (Jul 7, 4:53 pm)29.73 "Hg (Jul 18, 3:53 pm)
Average76 °F66%29.96 "Hg
* Reported Jul 4 3:53 pm — Jul 19 3:53 pm, Flint. Weather by CustomWeather, © 2019

Note: Actual official high and low records may vary slightly from our data, if they occured in-between our weather recording intervals... More about our weather records

Advertising

Flint Weather History for the Previous 24 Hours

Scroll right to see more
 ConditionsComfort  
Time TempWeatherWind HumidityBarometerVisibility
3:53 pm
Fri, Jul 19
92 °FScattered clouds.9 mph58%29.81 "Hg10 mi
2:53 pm93 °FPartly sunny.14 mph56%29.82 "Hg10 mi
1:53 pm92 °FPassing clouds.15 mph60%29.82 "Hg10 mi
12:53 pm90 °FScattered clouds.13 mph66%29.81 "Hg10 mi
12:03 pm88 °FBroken clouds.12 mph70%29.83 "Hg10 mi
10:53 am85 °FOvercast.7 mph75%29.80 "Hg10 mi
10:23 am85 °FPartly sunny.9 mph75%29.83 "Hg10 mi
9:53 am85 °FSunny.10 mph75%29.81 "Hg10 mi
8:53 am84 °FScattered clouds.10 mph77%29.83 "Hg10 mi
7:53 am82 °FSunny.10 mph79%29.80 "Hg10 mi
6:53 am80 °FBroken clouds.10 mph81%29.80 "Hg10 mi
5:53 am79 °FPassing clouds.8 mph84%29.79 "Hg10 mi
4:53 am79 °FPassing clouds.8 mph82%29.79 "Hg10 mi
3:53 am79 °FPassing clouds.7 mph82%29.79 "Hg10 mi
2:53 am78 °FPassing clouds.6 mph82%29.79 "Hg10 mi
1:53 am79 °FPartly cloudy.6 mph79%29.79 "Hg10 mi
12:53 am79 °FPassing clouds.7 mph77%29.80 "Hg10 mi
11:53 pm
Thu, Jul 18
81 °FOvercast.8 mph72%29.81 "Hg10 mi
10:53 pm81 °FOvercast.8 mph69%29.81 "Hg10 mi
9:53 pm81 °FPassing clouds.6 mph69%29.82 "Hg10 mi
8:53 pm82 °FSunny.6 mph67%29.79 "Hg10 mi
7:53 pm85 °FSunny.6 mph61%29.79 "Hg10 mi
6:53 pm86 °FSunny.7 mph59%29.78 "Hg10 mi
5:53 pm87 °FSunny.8 mph59%29.78 "Hg10 mi
Weather by CustomWeather, © 2019

See weather overview